     Mar.  1 18  17 53.48  +07 17.1   3.347  3.248    17.1 /  77  16.7  143  .74

NAKANO

         **** Don't distribute anyone except personal use only ****

                (C) Copyright 2004 OAA/ComputingSection

write mail from CFAD0::NAKANO on 2004-01-26 06:24:13(JST).

 

    C/2003 E1 (NEAT)                                                      

Epoch 2004 Feb. 5.0 TT = JDT 2453040.5  

T 2004 Feb. 13.63571 TT                                 Nakano

q   3.2452149            (2000.0)            P               Q

n   0.01940291     Peri.  103.85905     -0.37580806     +0.84685451

a  13.7159166      Node   137.06963     -0.90668381     -0.41994920

e   0.7633979      Incl.   33.53795     +0.19155356     -0.32631290

P  50.80 (+/- 0.81 day)

From 130 observations 2003 Mar. 9-July 17, mean residual 0".58.



NAKANO

         **** Don't distribute anyone except personal use only ****

                (C) Copyright 2003 OAA/ComputingSection

write mail from CFAD0::NAKANO on 2003-08-14 04:29:34(JST).

 



    C/2003 E1 (NEAT)                                                      

Epoch 2004 Feb. 5.0 TT = JDT 2453040.5  

T 2004 Feb. 13.63984 TT                                 Nakano

q   3.2451301            (2000.0)            P               Q

n   0.01939574     Peri.  103.86183     -0.37576875     +0.84687145

a  13.7192948      Node   137.06949     -0.90670332     -0.41990714

e   0.7634623      Incl.   33.53796     +0.19153834     -0.32632306

P  50.82 (+/- 1.76 day)

From 121 observations 2003 Mar. 9-June 1, mean residual 0".56.



NAKANO

         **** Don't distribute anyone except personal use only ****

                (C) Copyright 2003 OAA/ComputingSection

write mail from CFAD0::NAKANO on 2003-06-18 05:56:37(JST).

 

    C/2003 E1 (NEAT)                                                      

T 2004 Feb. 13.53383 TT                                 Nakano

q   3.2465115            (2000.0)            P               Q

n   0.01939384     Peri.  103.80772     -0.37641956     +0.84658498

a  13.7201929      Node   137.07809     -0.90635453     -0.42064746

e   0.7633771      Incl.   33.54350     +0.19191084     -0.32611283

P  50.82 (+/- 3.47 day)

From 84 observations 2003 Mar. 9-Apr. 27.



NAKANO

         **** Don't distribute anyone except personal use only ****

                (C) Copyright 2003 OAA/ComputingSection

write mail from CFAD0::NAKANO on 2003-04-29 01:22:29(JST).

 



◎C/2003 E1の軌道と予報位置です



 久万の中村彰正氏から3月26日の観測が報告されました.氏の CCD全光度は

19.0等でした.すでに報じられているとおり,周期が50年ほどの新周期彗星で

した.



    C/2003 E1 (NEAT)                                                      

T 2004 Feb. 12.81398 TT                                 Nakano

q   3.2404330            (2000.0)            P               Q

n   0.01917514     Peri.  103.91432     -0.37629744     +0.84664640

a  13.8243172      Node   136.99669     -0.90668538     -0.42005477

e   0.7655991      Incl.   33.48400     +0.19058293     -0.32671680

P  51.40 (+/-38.97 day)

From 51 observations 2003 Mar. 9-26.

 

Date/        TT  R.A.(2000) Decl.     Delta   r     Daily motion  Mag.  Moon Age

              h    h  m       。  ,                      ,  / PA 。  m1      。

2003 Mar. 25 14  12 18.77  +29 18.7   3.284  4.170     9.4 / 318  18.8  108  .45

          26 14  12 18.30  +29 25.7   3.283  4.165     9.3 / 318  18.8  120  .34

          27 14  12 17.82  +29 32.6   3.282  4.161     9.1 / 317  18.8  132  .25

          28 14  12 17.34  +29 39.2   3.281  4.156     9.0 / 316  18.8  142  .16

          29 14  12 16.86  +29 45.7   3.280  4.151     8.9 / 315  18.8  151  .10

          30 14  12 16.38  +29 52.0   3.280  4.146     8.8 / 315  18.8  155  .05

          31 14  12 15.90  +29 58.2   3.279  4.142     8.6 / 314  18.8  155  .02

     Apr.  1 14  12 15.42  +30 04.2   3.280  4.137     8.5 / 313  18.7  150  .00

           2 14  12 14.95  +30 10.0   3.280  4.132     8.3 / 312  18.7  141  .01

           3 14  12 14.47  +30 15.6   3.280  4.127     8.2 / 312  18.7  132  .03

           4 14  12 14.00  +30 21.0   3.281  4.123     8.0 / 311  18.7  121  .07

           5 14  12 13.54  +30 26.2   3.282  4.118     7.8 / 310  18.7  111  .12

           6 14  12 13.07  +30 31.3   3.283  4.113     7.7 / 309  18.7  100  .19

           7 14  12 12.61  +30 36.1   3.285  4.108     7.5 / 309  18.7   89  .27

           8 14  12 12.16  +30 40.8   3.287  4.104     7.3 / 308  18.7   77  .36

           9 14  12 11.71  +30 45.2   3.289  4.099     7.1 / 307  18.7   66  .46

          10 14  12 11.27  +30 49.5   3.291  4.094     6.9 / 306  18.7   55  .56

          11 14  12 10.84  +30 53.6   3.293  4.089     6.7 / 305  18.7   44  .66

          12 14  12 10.41  +30 57.5   3.296  4.085     6.6 / 304  18.7   34  .76

          13 14  12 09.99  +31 01.2   3.299  4.080     6.4 / 303  18.7   26  .85

          14 14  12 09.57  +31 04.7   3.302  4.075     6.2 / 302  18.7   25  .93

          15 14  12 09.17  +31 07.9   3.305  4.071     6.0 / 301  18.7   31  .98

          16 14  12 08.77  +31 11.0   3.308  4.066     5.8 / 300  18.7   42 1.00

          17 14  12 08.38  +31 13.9   3.312  4.061     5.6 / 299  18.7   55  .99

          18 14  12 08.00  +31 16.6   3.316  4.057     5.3 / 298  18.7   68  .95

          19 14  12 07.64  +31 19.1   3.320  4.052     5.1 / 297  18.7   82  .89

          20 14  12 07.28  +31 21.4   3.324  4.047     4.9 / 295  18.7   95  .80

          21 14  12 06.93  +31 23.6   3.328  4.043     4.7 / 294  18.7  108  .71

          22 14  12 06.59  +31 25.5   3.333  4.038     4.5 / 292  18.7  120  .60

          23 14  12 06.27  +31 27.2   3.337  4.034     4.3 / 291  18.7  132  .49

          24 14  12 05.95  +31 28.7   3.342  4.029     4.1 / 289  18.7  142  .39

          25 14  12 05.65  +31 30.0   3.347  4.024     3.9 / 287  18.7  151  .29

          26 14  12 05.36  +31 31.2   3.352  4.020     3.7 / 285  18.7  155  .21

          27 14  12 05.09  +31 32.1   3.358  4.015     3.5 / 283  18.7  155  .13

          28 14  12 04.82  +31 32.9   3.363  4.011     3.2 / 280  18.7  149  .08

          29 14  12 04.57  +31 33.5   3.369  4.006     3.0 / 277  18.7  141  .03

          30 14  12 04.33  +31 33.8   3.375  4.001     2.9 / 274  18.7  132  .01

     May   1 14  12 04.11  +31 34.0   3.380  3.997     2.7 / 270  18.7  122  .00



NAKANO

         **** Don't distribute anyone except personal use only ****

                (C) Copyright 2003 OAA/ComputingSection

write mail from CFAD0::NAKANO on 2003-03-28 05:52:55(JST).

 



    C/2003 E1 (NEAT)                                                      

T 2004 Jan. 29.05192 TT                                 Nakano

q   2.7903936            (2000.0)            P               Q

                   Peri.  113.76112     -0.25114240     +0.89142872

                   Node   135.61648     -0.96027839     -0.27842135

e   1.0            Incl.   32.63461     +0.12162610     -0.35754215

From 27 observations 2003 Mar. 9-13.



NAKANO

         **** Don't distribute anyone except personal use only ****

                (C) Copyright 2003 OAA/ComputingSection

write mail from CFAD0::NAKANO on 2003-03-20 00:36:21(JST).

 



戻ります。